[[{"header":{"parameterUnit":"m.s-1","parameterCategory":1,"la1":30.2991,"la2":30.254,"lo1":-89.0895,"lo2":-89.0444,"dy":0.0017,"dx":0.0017,"nx":28,"ny":28,"refTime":"2026-02-04T03:00:00:Z","depth":0,"parameterNumber":2,"parameterNumberName":"U-component_of_WINDS"},"data":[0,0,0,0,0,0,0,0,0,0,0,0,0,0,0,0,0,0,0,0,0,0,0,0,0,0,0,0,0,0,0,0,0,0,0,0,0,0,0,0,0,0,0,0,0,0,0,0,0,0,0,0,0,0,0,0,0,0,3.4308,3.4308,0,3.4321,3.4321,3.4321,3.4268,3.4267,3.4265,3.4264,3.4275,3.4277,3.4279,0,0,0,0,0,0,0,0,0,0,0,0,0,3.4237,3.4239,3.4308,3.4308,3.4308,3.4321,3.4321,3.4321,3.4268,3.4267,3.4265,3.4263,3.4275,3.4277,3.4279,0,0,0,0,0,0,0,0,0,0,0,0,0,3.4261,3.424,3.4308,3.4283,3.4281,3.4321,3.4321,3.4321,3.4269,3.4266,3.4264,3.4262,3.4274,3.4277,3.4279,3.4342,0,0,3.4287,3.4288,0,0,0,0,0,0,0,0,3.426,3.4264,3.4287,3.4285,3.4283,3.4291,3.43,3.4328,3.4269,3.4274,3.4264,3.4261,3.4282,3.4284,3.4291,3.4343,3.4343,3.4287,3.4289,3.429,3.4291,0,0,0,0,0,0,0,3.4258,3.4263,3.4313,3.4287,3.4285,3.4272,3.4273,3.4305,3.4291,3.4273,3.4269,3.4272,3.4281,3.4289,3.4291,3.4343,3.4287,3.429,3.4291,3.4292,3.4449,3.4451,0,0,0,0,0,0,3.426,3.4262,3.4312,3.4313,3.4265,3.4275,3.4276,3.429,3.429,3.4288,3.4274,3.4269,3.4286,3.4288,3.4292,3.4366,3.429,3.4293,3.4294,3.4446,3.4449,3.4452,0,0,0,0,0,0,3.4259,3.4265,3.4312,3.4287,3.4292,3.4279,3.4295,3.4292,3.43,3.4291,3.4288,3.4285,3.4284,3.4288,3.433,3.4366,3.4294,3.4296,3.4443,3.4447,3.4451,3.4516,0,0,0,0,0,0,3.4257,3.4265,3.4288,3.4287,3.4293,3.4351,3.4298,3.4294,3.4305,3.4299,3.43,3.4298,3.4282,3.4327,3.4333,3.4368,3.4298,3.444,3.4445,3.445,3.451,3.4521,3.4531,0,0,0,0,0,3.4254,3.4305,3.429,3.4296,3.4322,3.4353,3.4356,3.4337,3.4308,3.4332,3.4326,3.4298,3.4361,3.4332,3.4338,3.4375,3.4438,3.4444,3.4449,3.4506,3.4519,3.4531,0,0,0,0,0,0,3.4309,3.4305,3.4287,3.4339,3.4347,3.4344,3.4373,3.4352,3.4367,3.4361,3.4336,3.4337,3.4385,3.4384,3.4351,3.4437,3.4394,3.4402,3.4435,3.4448,3.4458,3.4457,3.43,0,0,0,0,0,3.4328,3.4353,3.4347,3.4394,3.4399,3.4386,3.4398,3.4383,3.439,3.4393,3.439,3.4397,3.4419,3.4433,3.4452,3.451,3.451,3.4539,3.4549,3.4558,3.4564,3.4596,3.4609,3.4471,3.4471,3.4471,0,0,3.4365,3.4366,3.4383,3.4405,3.4409,3.4437,3.4389,3.4419,3.4439,3.4397,3.4438,3.4436,3.4443,3.4494,3.4516,3.4495,3.4603,3.4565,3.4572,3.4574,3.4604,3.4617,3.4628,3.4475,3.4474,3.4474,0,0,3.4448,3.4451,3.4491,3.4497,3.4504,3.4495,3.4505,3.4506,3.4504,3.4544,3.4514,3.4538,3.4575,3.4581,3.459,3.4678,3.4653,3.4685,3.4738,3.477,3.4781,3.479,3.4822,3.4834,3.4692,3.4692,3.4692,0,3.4493,3.4533,3.4514,3.4547,3.4558,3.4523,3.4564,3.457,3.4583,3.4592,3.4568,3.4616,3.4617,3.467,3.4692,3.47,3.4711,3.4684,3.4781,3.479,3.4799,3.4829,3.4841,3.4696,3.4695,3.4695,3.4695,0,3.459,3.4618,3.465,3.4665,3.468,3.4716,3.4702,3.472,3.4704,3.4698,3.4741,3.4743,3.4762,3.4774,3.4758,3.4825,3.4812,3.4785,3.4742,3.4816,3.4844,3.4856,3.4701,3.47,3.4699,3.4698,0,0,3.4705,3.4711,3.4723,3.4731,3.4738,3.4759,3.4795,3.4815,3.4831,3.4842,3.4872,3.4906,3.4881,3.4891,3.4876,3.4904,3.4975,3.4874,3.4873,3.4893,3.5051,3.5071,3.5085,3.496,3.4962,3.4963,3.505,0,3.4787,3.4849,3.4833,3.4895,3.4922,3.489,3.4921,3.493,3.4926,3.4948,3.4943,3.4968,3.4933,3.4939,3.4965,3.4961,3.5007,3.4955,3.4987,3.4988,3.4986,3.5099,3.512,3.5202,3.5061,3.5063,3.5064,0,3.489,3.4907,3.4971,3.4976,3.4987,3.5015,3.5034,3.5056,3.5065,3.506,3.5072,3.5052,3.5088,3.5046,3.5095,3.5061,3.5073,3.5073,3.5076,3.5078,3.5031,3.5105,3.5228,3.524,3.5081,3.508,3.5079,0,3.4969,3.5007,3.5052,3.5059,3.5065,3.5086,3.509,3.5097,3.5111,3.5127,3.5136,3.5156,3.5167,3.5183,3.517,3.514,3.5222,3.5178,3.5219,3.522,3.5237,3.5236,3.5364,3.5246,3.5245,3.5245,3.5245,0,3.5062,3.5102,3.5087,3.5114,3.516,3.5142,3.5188,3.5188,3.5195,3.5221,3.5195,3.5221,3.5202,3.5226,3.5215,3.5259,3.5264,3.5261,3.5258,3.5264,3.5264,3.5271,3.5265,3.5248,3.5248,3.5247,3.5246,0,3.5157,3.5148,3.5194,3.5198,3.52,3.5233,3.5236,3.5261,3.5257,3.5291,3.5298,3.529,3.5318,3.5306,3.5334,3.5328,3.5384,3.5373,3.5381,3.5378,3.542,3.5417,3.5557,3.5575,3.5445,3.5446,3.5447,0,3.5216,3.5247,3.5255,3.5272,3.5278,3.5305,3.5319,3.5304,3.532,3.5335,3.5359,3.5384,3.5403,3.5449,3.5445,3.5468,3.5457,3.5505,3.546,3.5466,3.5459,3.5457,3.546,3.5514,3.5515,3.5517,3.5518,0,3.5323,3.5319,3.5341,3.5363,3.5382,3.5399,3.5412,3.5428,3.5413,3.5433,3.5461,3.5477,3.5507,3.5533,3.5553,3.5556,3.5535,3.5532,3.5543,3.5549,3.5552,3.5552,3.5406,3.5529,3.5527,3.5527,3.5526,3.5526,3.5403,3.543,3.544,3.5467,3.5476,3.5491,3.5515,3.5515,3.5538,3.5562,3.5552,3.5585,3.5595,3.562,3.5627,3.5653,3.5634,3.565,3.5654,3.5658,3.5664,3.5549,3.5656,3.5656,3.5656,3.5656,3.5655,0,3.5509,3.5515,3.554,3.5561,3.5583,3.5562,3.5577,3.5597,3.5627,3.5638,3.5659,3.5692,3.5718,3.5718,3.5741,3.5762,3.5753,3.5769,3.5767,3.5769,3.5679,3.5667,3.5776,3.5776,3.5776,3.5776,3.5776,3.5776,3.5567,3.5612,3.5609,3.5659,3.5664,3.5697,3.5708,3.5721,3.5731,3.577,3.5791,3.5792,3.5799,3.5823,3.5846,3.5845,3.5855,3.5875,3.5871,3.5787,3.5775,3.5763,3.5752,3.5878,3.5878,3.5959,3.596,3.596]},{"header":{"parameterUnit":"m.s-1","parameterCategory":1,"la1":30.2991,"la2":30.254,"lo1":-89.0895,"lo2":-89.0444,"dy":0.0017,"dx":0.0017,"nx":28,"ny":28,"refTime":"2026-02-04T03:00:00:Z","depth":0,"parameterNumber":3,"parameterNumberName":"V-component_of_WINDS"},"data":[0,0,0,0,0,0,0,0,0,0,0,0,0,0,0,0,0,0,0,0,0,0,0,0,0,0,0,0,0,0,0,0,0,0,0,0,0,0,0,0,0,0,0,0,0,0,0,0,0,0,0,0,0,0,0,0,0,0,-6.9751,-6.9752,0,-6.9886,-6.9887,-6.9889,-6.9855,-6.9853,-6.985,-6.9848,-6.9981,-6.9986,-6.9992,0,0,0,0,0,0,0,0,0,0,0,0,0,-6.9459,-6.9465,-6.975,-6.9752,-6.9754,-6.9886,-6.9887,-6.9889,-6.9856,-6.9853,-6.9849,-6.9846,-6.9979,-6.9986,-6.9993,0,0,0,0,0,0,0,0,0,0,0,0,0,-6.9589,-6.9466,-6.975,-6.9753,-6.9755,-6.9885,-6.9888,-6.989,-6.9857,-6.9853,-6.9849,-6.9845,-6.9976,-6.9985,-6.9994,-7.0128,0,0,-7.0021,-7.0025,0,0,0,0,0,0,0,0,-6.9582,-6.96,-6.9751,-6.9753,-6.9755,-6.985,-6.9833,-6.9969,-6.9858,-6.9818,-6.9848,-6.9843,-6.994,-6.9952,-6.9985,-7.0134,-7.014,-7.0022,-7.0027,-7.0031,-7.0034,0,0,0,0,0,0,0,-6.9573,-6.9594,-6.9804,-6.9753,-6.9756,-6.9746,-6.9761,-6.9859,-6.9899,-6.9821,-6.9819,-6.9836,-6.994,-6.9977,-6.9988,-7.0142,-7.0022,-7.003,-7.0035,-7.0039,-7.0409,-7.0413,0,0,0,0,0,0,-6.9563,-6.9586,-6.98,-6.9808,-6.9657,-6.9755,-6.9771,-6.9823,-6.9898,-6.9906,-6.9839,-6.9834,-6.9963,-6.9978,-6.9993,-7.0156,-7.0031,-7.004,-7.0045,-7.0404,-7.041,-7.0414,0,0,0,0,0,0,-6.9557,-6.9582,-6.9794,-6.9697,-6.9723,-6.9764,-6.9824,-6.9828,-6.9865,-6.9912,-6.9918,-6.9869,-6.9961,-6.998,-7.0095,-7.016,-7.0044,-7.0052,-7.0399,-7.0406,-7.0412,-7.0483,0,0,0,0,0,0,-6.9548,-6.958,-6.9632,-6.9698,-6.9728,-6.9896,-6.9828,-6.9834,-6.9881,-6.9875,-6.9942,-6.9949,-6.9959,-7.0082,-7.0104,-7.017,-7.0059,-7.0393,-7.0402,-7.041,-7.0475,-7.0491,-7.0505,0,0,0,0,0,-6.9538,-6.9645,-6.9635,-6.9661,-6.9795,-6.99,-6.9917,-6.9928,-6.9886,-6.9939,-6.9969,-6.9947,-7.0149,-7.0094,-7.0119,-7.0189,-7.0389,-7.04,-7.0409,-7.0468,-7.0488,-7.0505,0,0,0,0,0,0,-6.9583,-6.9654,-6.9643,-6.9775,-6.9832,-6.9894,-6.996,-6.9948,-7.0017,-7.0008,-7.0018,-7.0033,-7.0151,-7.0181,-7.0118,-7.0323,-7.0263,-7.0279,-7.0299,-7.0319,-7.0333,-7.0324,-7.0066,0,0,0,0,0,-6.9609,-6.969,-6.9746,-6.9857,-6.9886,-6.9919,-6.9965,-6.9969,-7.0027,-7.005,-7.0089,-7.0145,-7.0222,-7.0271,-7.0344,-7.0479,-7.0493,-7.0539,-7.0554,-7.0566,-7.0579,-7.0654,-7.0676,-7.0447,-7.0447,-7.0447,0,0,-6.9662,-6.971,-6.976,-6.9867,-6.9912,-6.9994,-6.9939,-7.0028,-7.0089,-7.0063,-7.0175,-7.0206,-7.0269,-7.0395,-7.0452,-7.0424,-7.0646,-7.0579,-7.0588,-7.0595,-7.0667,-7.0688,-7.0707,-7.0454,-7.0453,-7.0452,0,0,-6.9801,-6.9846,-6.9944,-6.9991,-7.006,-7.0081,-7.0104,-7.0169,-7.0189,-7.0302,-7.0285,-7.0357,-7.0488,-7.0535,-7.0575,-7.0735,-7.0717,-7.0758,-7.0836,-7.0909,-7.0927,-7.0943,-7.1001,-7.1021,-7.0771,-7.0771,-7.0771,0,-6.9857,-6.9983,-6.9995,-7.0087,-7.0135,-7.0118,-7.0218,-7.0261,-7.035,-7.0383,-7.035,-7.0516,-7.0557,-7.0694,-7.0733,-7.0766,-7.0794,-7.075,-7.0924,-7.094,-7.0955,-7.101,-7.1032,-7.0775,-7.0775,-7.0774,-7.0774,0,-7.005,-7.0137,-7.0208,-7.0297,-7.0353,-7.0447,-7.0473,-7.0528,-7.0528,-7.0552,-7.0668,-7.0717,-7.0801,-7.0833,-7.0833,-7.0971,-7.0952,-7.0921,-7.0861,-7.0981,-7.1033,-7.1054,-7.0782,-7.078,-7.0779,-7.0778,0,0,-7.022,-7.0317,-7.0343,-7.0384,-7.046,-7.0527,-7.0621,-7.0705,-7.0752,-7.0813,-7.0893,-7.1005,-7.0979,-7.1025,-7.1029,-7.1093,-7.1218,-7.1055,-7.1057,-7.1085,-7.1375,-7.1398,-7.1422,-7.1207,-7.1211,-7.1214,-7.137,0,-7.0367,-7.0536,-7.055,-7.0701,-7.0782,-7.0768,-7.085,-7.0905,-7.0931,-7.1002,-7.1029,-7.111,-7.1068,-7.1096,-7.1159,-7.119,-7.1276,-7.1178,-7.128,-7.1283,-7.1266,-7.1449,-7.1474,-7.1618,-7.139,-7.1394,-7.1396,0,-7.0561,-7.0632,-7.0791,-7.0858,-7.0893,-7.0966,-7.1045,-7.1114,-7.1176,-7.119,-7.1244,-7.124,-7.1336,-7.1273,-7.1406,-7.1339,-7.1381,-7.1403,-7.1408,-7.1419,-7.1347,-7.1465,-7.1665,-7.1687,-7.1428,-7.1425,-7.1423,0,-7.067,-7.0805,-7.0919,-7.0954,-7.1034,-7.1087,-7.1122,-7.1181,-7.1231,-7.1299,-7.1332,-7.141,-7.1452,-7.1512,-7.1529,-7.1482,-7.1662,-7.16,-7.1676,-7.1676,-7.1715,-7.1712,-7.1925,-7.1741,-7.1741,-7.174,-7.174,0,-7.0833,-7.0932,-7.097,-7.104,-7.115,-7.1166,-7.1274,-7.1306,-7.1358,-7.1434,-7.1425,-7.1495,-7.1514,-7.1587,-7.1601,-7.171,-7.1728,-7.1742,-7.1745,-7.1744,-7.1742,-7.1772,-7.1762,-7.1746,-7.1745,-7.1744,-7.1743,0,-7.0975,-7.1004,-7.1127,-7.1194,-7.1213,-7.1292,-7.1348,-7.1415,-7.144,-7.1535,-7.1558,-7.1597,-7.1684,-7.1707,-7.181,-7.1819,-7.1947,-7.194,-7.1927,-7.1927,-7.2003,-7.1996,-7.2242,-7.2276,-7.2069,-7.2071,-7.2073,0,-7.1077,-7.1153,-7.1229,-7.128,-7.1319,-7.14,-7.1453,-7.1471,-7.1525,-7.1603,-7.166,-7.1746,-7.1816,-7.1955,-7.1991,-7.207,-7.2065,-7.2146,-7.2076,-7.2073,-7.2067,-7.2063,-7.2071,-7.2159,-7.2161,-7.2163,-7.2164,0,-7.1256,-7.1268,-7.1344,-7.1426,-7.1489,-7.1554,-7.1617,-7.1658,-7.1685,-7.1746,-7.1836,-7.1891,-7.1997,-7.2083,-7.2163,-7.2197,-7.2186,-7.2186,-7.2208,-7.2208,-7.2198,-7.2206,-7.1964,-7.218,-7.2179,-7.2177,-7.2177,-7.2176,-7.1382,-7.145,-7.1515,-7.16,-7.165,-7.1709,-7.1776,-7.181,-7.1886,-7.1976,-7.1982,-7.2079,-7.214,-7.2247,-7.2286,-7.2362,-7.2338,-7.2369,-7.2377,-7.2385,-7.2392,-7.2186,-7.2376,-7.2376,-7.2376,-7.2375,-7.2375,0,-7.1561,-7.1603,-7.1682,-7.1771,-7.1839,-7.1824,-7.1893,-7.195,-7.2037,-7.2095,-7.2165,-7.2269,-7.2352,-7.2396,-7.2479,-7.2531,-7.2528,-7.2552,-7.2549,-7.2557,-7.2409,-7.2382,-7.2553,-7.2553,-7.2553,-7.2553,-7.2553,-7.2553,-7.1663,-7.1778,-7.1797,-7.1936,-7.1976,-7.2074,-7.2114,-7.2169,-7.2216,-7.2333,-7.2403,-7.2432,-7.2485,-7.2572,-7.2647,-7.2658,-7.2689,-7.2717,-7.2725,-7.2585,-7.2567,-7.255,-7.2525,-7.2723,-7.2723,-7.2866,-7.2868,-7.2869]}]]